Rockford, IL

11:01 PM CST on November 19, 2017 (GMT -0600)
Greater Rockford

Weather History for KRFD - October, 2013

Change the Weather History Date:

Monday, October 7, 2013

  Actual Average Record
Temperature  
Mean Temperature 58 °F 55 °F  
Max Temperature 71 °F 67 °F 88 °F (1916)
Min Temperature 44 °F 43 °F 26 °F (2001)
Degree Days  
Heating Degree Days 7 11  
Month to date heating degree days 20 68  
Since 1 July heating degree days 102 199  
Cooling Degree Days 0 1  
Month to date cooling degree days 16 7  
Year to date cooling degree days 890 818  
Growing Degree Days 8 (Base 50)    
Moisture  
Dew Point 44 °F    
Average Humidity 65    
Maximum Humidity 93    
Minimum Humidity 37    
Precipitation  
Precipitation T in 0.08 in 1.83 in (1930)
Month to date precipitation 1.25 0.64  
Year to date precipitation 34.86 29.65  
Snow  
Snow 0.00 in 0.00 in 0.00 in ()
Month to date snowfall 0.0 0.0  
Since 1 July snowfall 0.0 0.0  
Since 1 September snowfall 0.0 0.0  
Snow Depth 0.00 in    
Sea Level Pressure  
Sea Level Pressure 29.94 in    
Wind  
Wind Speed 7 mph (West)    
Max Wind Speed 17 mph    
Max Gust Speed 23 mph    
Visibility 10 miles    
Events      
T = Trace of Precipitation, MM = Missing Value Source: NWS Daily Summary

Daily Weather History Graph

Daily Weather History Graph

Search for Another Location

Airport or City:

Trip Planner

Search our weather history database for the weather conditions in past years. The results will help you decide how hot, cold, wet, or windy it might be!

Date:

Astronomy

Oct. 07, 2013 Rise Set
Actual Time 7:00 AM CDT 6:27 PM CDT
Civil Twilight 6:32 AM CDT 6:55 PM CDT
Nautical Twilight 5:59 AM CDT 7:27 PM CDT
Astronomical Twilight 5:27 AM CDT 8:00 PM CDT
Moon 9:53 AM CDT (10/7) 8:08 PM CDT (10/7)
Length of Visible Light 12h 22m
Length of Day
11h 26m
Waxing Crescent, 9% of the Moon is Illuminated
Oct 7
Waxing Crescent
Oct 11
First Quarter
Oct 18
Full
Oct 26
Last Quarter
Nov 3
New

Hourly Weather History & Observations

Time (CDT) Temp. Windchill Dew Point Humidity Pressure Visibility Wind Dir Wind Speed Gust Speed Precip Events Conditions
12:54 AM 44.1 °F 39.0 °F 41.0 °F 89% 29.80 in 10.0 mi West 9.2 mph - N/A   Overcast
1:54 AM 44.1 °F 42.5 °F 42.1 °F 93% 29.80 in 10.0 mi SSW 3.5 mph - N/A   Overcast
2:54 AM 44.1 °F 39.0 °F 42.1 °F 93% 29.81 in 10.0 mi West 9.2 mph - N/A   Overcast
3:54 AM 45.0 °F 40.6 °F 41.0 °F 86% 29.82 in 10.0 mi WSW 8.1 mph - N/A   Overcast
4:40 AM 44.6 °F 40.2 °F 42.8 °F 93% 29.82 in 10.0 mi WSW 8.1 mph - N/A   Overcast
4:54 AM 45.0 °F 40.6 °F 42.1 °F 90% 29.84 in 10.0 mi WSW 8.1 mph - N/A   Overcast
5:54 AM 46.0 °F 41.9 °F 44.1 °F 93% 29.85 in 6.0 mi West 8.1 mph - 0.00 in   Light Drizzle
6:54 AM 48.0 °F - 45.0 °F 89% 29.88 in 10.0 mi West 9.2 mph - 0.00 in   Overcast
7:05 AM 48.2 °F - 44.6 °F 87% 29.87 in 10.0 mi West 8.1 mph - N/A   Overcast
7:36 AM 48.2 °F - 44.6 °F 87% 29.89 in 10.0 mi West 8.1 mph - N/A   Scattered Clouds
7:54 AM 48.9 °F - 45.0 °F 86% 29.90 in 10.0 mi WNW 6.9 mph - N/A   Partly Cloudy
8:54 AM 52.0 °F - 45.0 °F 77% 29.93 in 10.0 mi NW 11.5 mph - N/A   Partly Cloudy
9:54 AM 55.0 °F - 45.0 °F 69% 29.96 in 10.0 mi WNW 11.5 mph 17.3 mph N/A   Scattered Clouds
10:54 AM 57.0 °F - 46.0 °F 67% 29.98 in 10.0 mi WNW 10.4 mph - N/A   Partly Cloudy
11:54 AM 62.1 °F - 45.0 °F 53% 29.98 in 10.0 mi WNW 10.4 mph - N/A   Clear
12:54 PM 64.9 °F - 44.1 °F 47% 29.98 in 10.0 mi NW 9.2 mph - N/A   Clear
1:54 PM 66.9 °F - 44.1 °F 44% 29.96 in 10.0 mi West 10.4 mph - N/A   Partly Cloudy
2:54 PM 69.1 °F - 43.0 °F 39% 29.96 in 10.0 mi West 9.2 mph 19.6 mph N/A   Scattered Clouds
3:54 PM 70.0 °F - 43.0 °F 38% 29.96 in 10.0 mi WNW 15.0 mph 20.7 mph N/A   Scattered Clouds
4:54 PM 70.0 °F - 42.1 °F 36% 29.97 in 10.0 mi NW 12.7 mph - N/A   Scattered Clouds
5:54 PM 66.0 °F - 44.1 °F 45% 29.99 in 10.0 mi West 5.8 mph - N/A   Scattered Clouds
6:54 PM 60.1 °F - 48.0 °F 64% 30.01 in 10.0 mi Calm Calm - N/A   Partly Cloudy
7:54 PM 55.9 °F - 46.9 °F 72% 30.04 in 10.0 mi Calm Calm - N/A   Partly Cloudy
8:54 PM 54.0 °F - 48.0 °F 80% 30.07 in 10.0 mi Calm Calm - N/A   Partly Cloudy
9:54 PM 51.1 °F - 48.0 °F 89% 30.09 in 10.0 mi Calm Calm - N/A   Clear
10:54 PM 50.0 °F - 45.0 °F 83% 30.10 in 10.0 mi Calm Calm - N/A   Clear
11:54 PM 48.9 °F - 46.0 °F 90% 30.11 in 10.0 mi Calm Calm - N/A   Clear